Zurück zum Katalog

DELTA 1 DEB

AktivSSO
NORAD 7168·DEBRIS·🇺🇸 United States

Gestartet Nov 6, 1973 von Vandenberg Space Force Base

Loading…

Nächste Überflüge (nächste 24 Stunden)

TLE

AktuellSource: Space-Track

Epoche: Sep 14, 2026, 07:55 UTC

1 07168U 73086EG  26257.32986715  .00000310  00000-0  36201-2 0  9997
2 07168 102.3222  26.3084 0180331 335.3735  50.5332 12.11378946549271

Verfolge DELTA 1 DEB in Echtzeit mit AllMySat

Download on the App Store